Harbor Springs, MI

11:24 AM EDT on October 17, 2017 (GMT -0400)
Harbor Springs

Weather History for KMGN - August, 2014

Change the Weather History Date:

Friday, August 29, 2014

  Actual Average (KPLN) Record (KPLN)
Temperature  
Mean Temperature 65 °F -  
Max Temperature 75 °F 74 °F 95 °F (1953)
Min Temperature 55 °F 51 °F 31 °F (1982)
Growing Degree Days 15 (Base 50)    
Moisture  
Dew Point 58 °F    
Average Humidity 82    
Maximum Humidity 93    
Minimum Humidity 72    
Precipitation  
Precipitation 0.00 in - - ()
Sea Level Pressure  
Sea Level Pressure 30.01 in    
Wind  
Wind Speed 4 mph (East)    
Max Wind Speed 8 mph    
Max Gust Speed -    
Visibility 9 miles    
Events Rain    
Averages and records for this station are not official NWS values.
T = Trace of Precipitation, MM = Missing Value Source: NWS Daily Summary

Daily Weather History Graph

Daily Weather History Graph

Search for Another Location

Airport or City:

Trip Planner

Search our weather history database for the weather conditions in past years. The results will help you decide how hot, cold, wet, or windy it might be!

Date:

Astronomy

Aug. 29, 2014 Rise Set
Actual Time 6:57 AM EDT 8:22 PM EDT
Civil Twilight 6:26 AM EDT 8:53 PM EDT
Nautical Twilight 5:49 AM EDT 9:30 PM EDT
Astronomical Twilight 5:09 AM EDT 10:10 PM EDT
Moon 10:59 AM EDT (8/29) 10:05 PM EDT (8/29)
Length of Visible Light 14h 26m
Length of Day
13h 25m
Waxing Crescent, 15% of the Moon is Illuminated
Aug 29
Waxing Crescent
Sep 2
First Quarter
Sep 8
Full
Sep 15
Last Quarter
Sep 24
New

Hourly Weather History & Observations

Time (EDT) Temp. Dew Point Humidity Pressure Visibility Wind Dir Wind Speed Gust Speed Precip Events Conditions
12:14 AM 55.0 °F 48.9 °F 80% 30.12 in 10.0 mi NE 4.6 mph - N/A   Clear
12:35 AM 56.3 °F 49.1 °F 77% 30.12 in 10.0 mi NE 4.6 mph - N/A   Clear
12:55 AM 56.3 °F 49.5 °F 78% 30.11 in 10.0 mi ENE 5.8 mph - N/A   Clear
1:15 AM 56.1 °F 50.0 °F 80% 30.11 in 10.0 mi NE 6.9 mph - N/A   Clear
1:34 AM 56.3 °F 50.5 °F 81% 30.11 in 10.0 mi NE 3.5 mph - N/A   Clear
1:55 AM 56.5 °F 51.1 °F 82% 30.11 in 10.0 mi NE 3.5 mph - N/A   Clear
2:14 AM 56.3 °F 51.3 °F 83% 30.11 in 10.0 mi ENE 4.6 mph - N/A   Clear
2:35 AM 56.7 °F 51.8 °F 84% 30.10 in 10.0 mi ENE 5.8 mph - N/A   Clear
2:54 AM 56.8 °F 51.8 °F 83% 30.10 in 10.0 mi ENE 4.6 mph - N/A   Clear
3:15 AM 57.2 °F 51.8 °F 82% 30.10 in 10.0 mi NE 3.5 mph - N/A   Clear
3:34 AM 57.2 °F 51.8 °F 82% 30.09 in 10.0 mi ENE 4.6 mph - N/A   Clear
3:55 AM 57.4 °F 51.8 °F 82% 30.08 in 10.0 mi ENE 5.8 mph - N/A   Clear
4:14 AM 57.7 °F 51.8 °F 81% 30.08 in 10.0 mi ENE 5.8 mph - N/A   Clear
4:35 AM 57.6 °F 51.8 °F 81% 30.07 in 10.0 mi ENE 4.6 mph - N/A   Clear
4:55 AM 58.1 °F 51.8 °F 80% 30.07 in 10.0 mi ENE 4.6 mph - N/A   Clear
5:14 AM 58.5 °F 52.0 °F 79% 30.07 in 10.0 mi ENE 4.6 mph - N/A   Clear
5:35 AM 59.0 °F 52.2 °F 78% 30.07 in 10.0 mi ENE 4.6 mph - N/A   Mostly Cloudy
5:55 AM 59.0 °F 52.2 °F 78% 30.07 in 10.0 mi NE 4.6 mph - N/A   Scattered Clouds
6:15 AM 58.8 °F 52.3 °F 79% 30.07 in 10.0 mi ENE 4.6 mph - N/A   Scattered Clouds
6:35 AM 59.0 °F 52.3 °F 79% 30.07 in 10.0 mi NE 5.8 mph - N/A   Mostly Cloudy
6:54 AM 59.9 °F 52.0 °F 75% 30.08 in 10.0 mi NE 3.5 mph - N/A   Scattered Clouds
7:15 AM 60.1 °F 52.0 °F 75% 30.07 in 10.0 mi NE 3.5 mph - N/A   Clear
7:34 AM 60.6 °F 52.2 °F 74% 30.08 in 10.0 mi ENE 3.5 mph - N/A   Mostly Cloudy
7:55 AM 60.3 °F 52.7 °F 76% 30.08 in 10.0 mi ENE 4.6 mph - N/A Rain Rain
8:15 AM 59.9 °F 53.8 °F 80% 30.08 in 10.0 mi NE 3.5 mph - N/A Rain Light Rain
8:34 AM 60.1 °F 54.5 °F 82% 30.08 in 10.0 mi Calm Calm - N/A Rain Rain
8:55 AM 60.1 °F 55.6 °F 85% 30.08 in 5.0 mi Calm Calm - N/A Rain Rain
9:14 AM 59.0 °F 55.9 °F 90% 30.07 in 3.0 mi Calm Calm - N/A Rain Heavy Rain
9:34 AM 59.4 °F 55.8 °F 88% 30.07 in 5.0 mi Calm Calm - N/A Rain Rain
9:55 AM 59.4 °F 56.3 °F 90% 30.07 in 5.0 mi ENE 4.6 mph - N/A Rain Rain
10:15 AM 59.0 °F 56.3 °F 91% 30.07 in 4.0 mi East 3.5 mph - N/A Rain Rain
10:34 AM 59.2 °F 56.7 °F 91% 30.06 in 5.0 mi ENE 3.5 mph - N/A Rain Rain
10:55 AM 59.4 °F 57.2 °F 93% 30.06 in 4.0 mi Calm Calm - N/A Rain Rain
11:14 AM 59.7 °F 57.7 °F 93% 30.06 in 3.0 mi East 4.6 mph - N/A Rain Heavy Rain
11:34 AM 60.1 °F 57.9 °F 93% 30.04 in 5.0 mi East 4.6 mph - N/A Rain Rain
11:55 AM 60.4 °F 58.3 °F 93% 30.04 in 7.0 mi East 4.6 mph - N/A Rain Rain
12:15 PM 61.0 °F 58.5 °F 91% 30.03 in 7.0 mi East 3.5 mph - N/A Rain Rain
12:34 PM 61.0 °F 58.6 °F 92% 30.02 in 2.0 mi East 5.8 mph - N/A Rain Heavy Rain
12:54 PM 61.2 °F 58.8 °F 92% 30.02 in 4.0 mi ESE 3.5 mph - N/A Rain Rain
1:15 PM 61.7 °F 59.2 °F 91% 30.00 in 7.0 mi East 4.6 mph - N/A Rain Light Rain
1:34 PM 62.6 °F 60.1 °F 91% 30.00 in 10.0 mi Calm Calm - N/A Rain Light Rain
1:55 PM 63.3 °F 60.4 °F 90% 29.99 in 10.0 mi Calm Calm - N/A   Overcast
2:15 PM 64.4 °F 62.1 °F 92% 29.98 in 7.0 mi ENE 3.5 mph - N/A Rain Light Rain
2:34 PM 65.3 °F 61.9 °F 89% 29.97 in 10.0 mi East 4.6 mph - N/A   Overcast
2:55 PM 66.0 °F 62.4 °F 88% 29.96 in 10.0 mi ENE 4.6 mph - N/A   Overcast
3:14 PM 68.2 °F 64.2 °F 87% 29.95 in 10.0 mi East 3.5 mph - N/A   Mostly Cloudy
3:35 PM 70.0 °F 64.6 °F 83% 29.94 in 10.0 mi East 4.6 mph - N/A   Mostly Cloudy
3:54 PM 71.6 °F 65.5 °F 81% 29.93 in 10.0 mi Calm Calm - N/A   Mostly Cloudy
4:15 PM 72.5 °F 65.3 °F 78% 29.92 in 10.0 mi South 5.8 mph - N/A   Mostly Cloudy
4:34 PM 73.2 °F 65.7 °F 77% 29.92 in 10.0 mi South 5.8 mph - N/A   Mostly Cloudy
4:55 PM 74.3 °F 65.5 °F 74% 29.92 in 10.0 mi SSE 4.6 mph - N/A   Mostly Cloudy
5:14 PM 74.1 °F 65.5 °F 74% 29.91 in 10.0 mi SE 6.9 mph - N/A   Mostly Cloudy
5:34 PM 73.9 °F 65.1 °F 74% 29.91 in 10.0 mi South 8.1 mph - N/A   Overcast
5:55 PM 74.3 °F 65.1 °F 73% 29.90 in 10.0 mi Calm Calm - N/A   Mostly Cloudy
6:15 PM 75.4 °F 65.8 °F 72% 29.90 in 10.0 mi Calm Calm - N/A   Mostly Cloudy
6:35 PM 75.7 °F 66.4 °F 73% 29.90 in 10.0 mi Calm Calm - N/A   Scattered Clouds
6:55 PM 74.8 °F 66.6 °F 75% 29.89 in 10.0 mi Calm Calm - N/A   Scattered Clouds
7:14 PM 73.9 °F 65.5 °F 75% 29.90 in 10.0 mi Calm Calm - N/A   Clear
7:35 PM 72.9 °F 65.3 °F 77% 29.90 in 10.0 mi Calm Calm - N/A   Scattered Clouds
7:55 PM 72.7 °F 64.4 °F 75% 29.90 in 10.0 mi South 3.5 mph - N/A   Scattered Clouds
8:15 PM 72.0 °F 64.4 °F 77% 29.90 in 10.0 mi South 3.5 mph - N/A   Clear
8:34 PM 71.2 °F 63.5 °F 76% 29.91 in 10.0 mi Calm Calm - N/A   Scattered Clouds
8:55 PM 70.9 °F 63.0 °F 76% 29.90 in 10.0 mi Calm Calm - N/A   Clear
9:14 PM 69.6 °F 62.8 °F 79% 29.91 in 10.0 mi Calm Calm - N/A   Clear
9:35 PM 70.0 °F 63.1 °F 79% 29.91 in 10.0 mi South 4.6 mph - N/A   Scattered Clouds
9:54 PM 70.3 °F 63.1 °F 78% 29.92 in 10.0 mi SSW 4.6 mph - N/A   Overcast
10:15 PM 70.3 °F 63.5 °F 79% 29.91 in 10.0 mi South 4.6 mph - N/A   Mostly Cloudy
10:35 PM 70.5 °F 63.5 °F 78% 29.91 in 10.0 mi Calm Calm - N/A   Overcast
10:54 PM 69.8 °F 64.6 °F 83% 29.90 in 10.0 mi Calm Calm - N/A Rain Light Rain
11:15 PM 68.5 °F 65.3 °F 89% 29.90 in 10.0 mi SE 3.5 mph - N/A   Overcast
11:34 PM 69.1 °F 64.6 °F 86% 29.89 in 10.0 mi Calm Calm - N/A   Mostly Cloudy
11:55 PM 69.8 °F 64.6 °F 83% 29.89 in 10.0 mi Calm Calm - N/A Rain Light Rain